Simultaneous Nadir Overpasses (SNOs) Predictions

Prediction of SNOs between LANDSAT-8 and METOP-A Satellite Orbit:

Table of predicted SNOs for the next 14.0 days since TLE Epoch: 3/17/2018
Index Date (LANDSAT-8) Time (LANDSAT-8) Lat,Lon (LANDSAT-8) SZA (LANDSAT-8 ) Date (METOP-A) Time (METOP-A) Lat,Lon (METOP-A) SZA (METOP-A ) Distance(km) Time Diff (sec)
1 03/17/2018 18:56:51 -81.31, 118.35 95.50 03/17/2018 18:56:42 -81.31, 118.42 95.50 1.19 9
2 03/17/2018 19:46:17 81.32, -73.90 84.50 03/17/2018 19:47:22 81.32, -73.93 84.53 0.56 65
3 03/20/2018 14:31:04 -81.32,-175.10 96.58 03/20/2018 14:30:58 -81.31,-175.20 96.59 1.71 6
4 03/20/2018 15:20:30 81.33, -7.38 83.43 03/20/2018 15:21:37 81.33, -7.20 83.48 3.00 67
5 03/23/2018 10:05:19 -81.30,-108.97 97.70 03/23/2018 10:05:15 -81.31,-108.83 97.68 2.54 4
6 03/23/2018 10:54:44 81.33, 59.11 82.35 03/23/2018 10:55:54 81.33, 59.12 82.38 0.29 70
7 03/26/2018 04:50:20 80.98, 144.76 80.49 03/26/2018 04:49:06 81.14, 144.44 80.56 18.74 74
8 03/26/2018 05:39:33 -81.31, -42.49 98.78 03/26/2018 05:39:32 -81.31, -42.49 98.77 0.57 1
9 03/26/2018 06:28:58 81.33, 125.56 81.27 03/26/2018 06:30:11 81.32, 125.42 81.28 2.45 73
10 03/29/2018 00:24:19 81.31,-143.70 80.16 03/29/2018 00:23:07 81.31,-143.53 80.15 2.93 72
11 03/29/2018 01:13:46 -81.31, 23.95 99.85 03/29/2018 01:13:48 -81.31, 23.84 99.86 1.86 2




NCC Satellite Simultaneous Nadir Overpasses (SNOs) Prediction Service
